Voltar ao catálogo

COSMOS 2499 DEB

LostPO
NORAD 55730·DEBRIS·🇷🇺 Russia

Lançado May 23, 2014 de Plesetsk Cosmodrome

Loading…

Próximas Passagens (próximas 24 horas)

TLE

ObsoletoSource: Space-Track

Época: Jan 5, 2025, 20:47 UTC

1 55730U 14028AS  25005.86633413  .00012233  00000-0  35254-1 0  9992
2 55730  82.1528 217.0201 0193008 138.4768 223.1193 13.03648055 93074

Acompanhe COSMOS 2499 DEB em tempo real com AllMySat

Download on the App Store